Regional Weather Roundup
Issued by NWS Columbia, SC

Home | Current Version | Previous Version | Text Only | Print | Product List | Glossary On
Versions: 1 2 3 4 5 6 7 8 9 10 11 12 13 14 15 16 17 18 19 20 21 22 23 24 25 26 27
000
ASUS42 KCAE 250510
RWRCAE
REGIONAL WEATHER ROUNDUP
NATIONAL WEATHER SERVICE COLUMBIA SC
1200 AM EST SAT FEB 25 2017

NOTE: "FAIR" INDICATES FEW OR NO CLOUDS BELOW 12,000 FEET WITH NO
SIGNIFICANT WEATHER AND/OR OBSTRUCTIONS TO VISIBILITY.

NOT ALL STATIONS ARE QUALITY CONTROLLED BY THE NATIONAL
WEATHER SERVICE. USE DATA WITH CAUTION...ESPECIALLY
DEWPOINT OBSERVATIONS.

SCZ001>056-GAZ040-063>065-077-250600-
...UPSTATE SOUTH CAROLINA...

CITY           SKY/WX    TMP DP  RH WIND       PRES   REMARKS
ANDERSON       MOCLDY    64  53  67 S8        29.79F
LIBERTY        MOCLDY    58  53  81 S7        29.78F
SPARTANBURG    MOCLDY    63  52  67 CALM      29.79F
CLEMSON        MOCLDY    65  53  65 VRB3      29.79F
GREENVILLE     MOCLDY    64  51  62 S7        29.80F
GREENWOOD      PTCLDY    63  52  67 S8        29.81F
GREER          MOCLDY    59  51  75 S7        29.78F
ROCK HILL      PTCLDY    61  52  72 S7        29.82S
CHESTER        CLEAR     57  50  77 S7        29.82S
LAURENS        CLEAR     63  54  72 S6        29.80F


...CENTRAL SOUTH CAROLINA...

CITY           SKY/WX    TMP DP  RH WIND       PRES   REMARKS
COLUMBIA APT   CLEAR     65  57  75 S7        29.82F
COLUMBIA OWENS CLEAR     65  57  75 S5        29.84F
MCENTIRE ANGB  CLEAR     57  56  94 CALM      29.84F
ORANGEBURG     CLEAR     61  58  90 S6        29.85F
SUMTER SHAW    CLEAR     59  56  89 CALM      29.82F
AIKEN          FAIR      59  55  88 S7        29.86F
BARNWELL       FAIR      64  61  88 CALM      29.84F
MANNING        FAIR      59  55  88 MISG      29.85F
CAMDEN         FAIR      63  57  82 CALM      29.84S
LANCASTER      CLEAR     63  57  82 S6        29.82S
WINNSBORO      CLEAR     63  55  77 S9        29.83F


...EASTERN AND COASTAL SOUTH CAROLINA...

CITY           SKY/WX    TMP DP  RH WIND       PRES   REMARKS
MYRTLE BEACH   CLEAR     58  57  97 CALM      29.85S
N MYRTLE BCH   CLEAR     55  55 100 CALM      29.84S
CONWAY         FAIR      52  52 100 CALM      29.85S
MARION         FAIR      57  55  94 CALM      29.85S
HARTSVILLE     FAIR      59  55  88 S5        29.84S
FLORENCE       CLEAR     60  59  96 S5        29.84F
DARLINGTON     CLEAR     61  57  87 S6        29.85S
CHARLESTON APT CLEAR     59  57  93 CALM      29.85S
MOUNT PLEASANT FAIR      57  57 100 CALM      29.86R
WALTERBORO     CLEAR     59  59 100 CALM      29.86F
BEAUFORT       CLEAR     57  57 100 SW3       29.86S


...EASTERN GEORGIA...

CITY           SKY/WX    TMP DP  RH WIND       PRES   REMARKS
AUGUSTA BUSH F CLEAR     64  58  80 S8        29.82F
AUGUSTA DANIEL CLEAR     65  56  72 SE6       29.83F
THOMSON        CLEAR     67  60  80 CALM      29.86S
WASHINGTON     FAIR      63  55  77 SE7       29.80F
CLAXTON        FAIR     N/A N/A N/A CALM      29.85F
SYLVANIA       CLEAR    N/A N/A N/A CALM      29.85F
STATESBORO     CLEAR     63  63 100 CALM      29.85F
SAVANNAH       CLEAR     61  58  90 SE6       29.86F


...SOUTHERN NORTH CAROLINA...

CITY           SKY/WX    TMP DP  RH WIND       PRES   REMARKS
CHARLOTTE      PTCLDY    59  51  75 S6        29.81F
MONROE         CLEAR     64  55  72 S6        29.81S
WADESBORO      CLEAR     64  56  74 S7        29.82S
ROCKINGHAM     CLEAR     63  58  86 S7        29.83F
RUTHERFORDTON  CLOUDY    60  53  78 CALM      29.80F
ASHEVILLE      CLOUDY    58  49  72 CALM      29.81F

$$




USA.gov is the U.S. government's official web portal to all federal, state and local government web resources and services.